Regional Weather Roundup
Issued by NWS Portland, ME

Home | Current Version | Previous Version | Text Only | Print | Product List | Glossary On
Versions: 1 2 3 4 5 6 7 8 9 10 11 12 13 14 15 16 17 18 19 20 21 22 23 24 25 26 27 28 29 30 31 32 33 34 35 36 37 38 39 40 41 42 43 44 45 46 47 48 49 50
000
ASUS41 KGYX 270210
RWRGYX
WEATHER ROUNDUP FOR MAINE AND NEW HAMPSHIRE
NATIONAL WEATHER SERVICE GRAY ME
1000 PM EDT TUE JUL 26 2016

MEZ002-005-006-010-012-015-018-020-021-024-026-027-029-270300-
MAINE

CITY           SKY/WX    TMP DP  RH WIND       PRES   REMARKS
PORTLAND       CLEAR     76  61  59 NW8       29.85R
SANFORD          N/A     67  63  87 CALM      29.87R
BAR HARBOR     PTCLDY    70  70 100 CALM      29.81R FOG
WISCASSET      CLEAR     77  60  55 VRB3      29.85R
ROCKLAND       CLEAR     75  64  68 W3        29.82R
FRYEBURG       NOT AVBL
LEWISTONAUBURN CLEAR     74  60  61 N5        29.87R
AUGUSTA        CLEAR     75  59  57 NW6       29.86R
WATERVILLE     CLEAR     75  61  61 NW7       29.83R
BANGOR         CLEAR     76  63  64 W7        29.82R
GREENVILLE       N/A     68  59  73 VRB6      29.86R
MILLINOCKET    CLEAR     74  60  61 W5        29.83R
HOULTON        CLEAR     65  65 100 CALM      29.79R
PRESQUE ISLE   CLEAR     65  64  97 CALM      29.81R
FRENCHVILLE    CLEAR     68  60  75 NW3       29.80R
CARIBOU        PTCLDY    68  64  87 W3        29.79R
$$

NHZ002-005-008-009-011-012-014-270300-
NEW HAMPSHIRE

CITY           SKY/WX    TMP DP  RH WIND       PRES   REMARKS
PORTSMOUTH     CLEAR     75  62  63 NW6       29.85R
ROCHESTER      CLEAR     74  60  61 W3        29.87R
NASHUA         CLEAR     79  61  53 NW7       29.89R
MANCHESTER     CLEAR     80  58  46 NW8       29.88R
CONCORD        CLEAR     76  57  51 NW6       29.89R
LACONIA        CLEAR     72  60  66 W5        29.90R
PLYMOUTH       FAIR      69  60  71 W3        29.90R
BERLIN         CLEAR     68  60  75 N3        29.93R
WHITEFIELD     CLEAR     66  61  84 CALM      29.94R
JAFFREY        CLEAR     72  58  61 CALM      29.95R
KEENE          CLEAR     67  60  78 CALM      29.93R
LEBANON        CLEAR     68  60  75 CALM      29.91R
MT WASHINGTON  FOG       50  50 100 NW29G41     N/A  VSB 1/16
$$

VTZ005-007-008-270300-
VERMONT

CITY           SKY/WX    TMP DP  RH WIND       PRES   REMARKS
ST JOHNSBURY     N/A     68  62  81 MISG      29.90R
MONTPELIER     FAIR      64  60  87 CALM      29.98R
BURLINGTON     FAIR      73  63  70 E3        29.91R
$$

MAZ007-012-024-CTZ003-RIZ002-NYZ038-NYZ072-270300-
SOUTHERN NEW ENGLAND AND NY

CITY           SKY/WX    TMP DP  RH WIND       PRES   REMARKS
BOSTON         PTCLDY    85  60  42 NW12      29.86R
WORCESTER      CLEAR     75  59  57 NW12      29.94R
NANTUCKET      MOCLDY    73  68  84 W9        29.85R
PROVIDENCE     PTCLDY    81  59  47 NW8       29.88R
HARTFORD       PTCLDY    78  61  55 NW6       29.90R
ALBANY         PTCLDY    76  60  57 W12       29.93R
NEW YORK CITY  MOCLDY    85  61  44 NW9       29.90R
$$

ANZ081-ANZ082-ANZ150-NHZ014-MEZ023>029-270300-
COASTAL MARINE OBSERVATIONS

STATION/POSITION TIME  TEMP    WIND        PRES    WAVE
                       AIR SEA DIR/SP/G            HT/PER
                 (UTC) (F)     (DEG/KT/KT) (MB)    (FT/S)
MOUNT DESERT ROC 0200   64     360/  3/  3 1009.4R
MATINICUS ROCK   0200   71     300/ 11/ 11 1009.2R
ISLE OF SHOALS   0200   79     330/ 13/ 13 1010.5R
JEFFREYS LEDGE   0108      69                N/A     1/ 7
CASHES LEDGE BUO 0150   74 72  280/  8/  8 1009.9R   1/ 8
GEORGES BANK BUO 0150   63 63              1010.0R   3/ 6
$$

.............KEY..............
   WCI - WIND CHILL
   TC  - TEMPERATURE IN CELSIUS
   VSB - VISIBILITY IN MILES
   HX  - HEAT INDEX
   FAIR- INDICATES FEW OR NO CLOUDS BELOW 12,000 FT, WITH NO
         SIGNIFICANT WEATHER AND/OR OBSTRUCTIONS TO VISIBILITY.






USA.gov is the U.S. government's official web portal to all federal, state and local government web resources and services.